EW0415 Weather Reports


time (UTC)temp
C
wind
direction
speed
KPH
gust
KPH
rain 1hr
cm
rain 24hr
cm
rain mn
cm
humidity
%
barometer
mb
20260503212517 14 298 3.2 12.9 0.08 0.56 0.46 87 1013.8
20260503212011 14 293 4.8 11.3 0.05 0.56 0.46 87 1013.8
20260503211530 14 0 3.2 12.9 0.00 0.48 0.38 87 1013.8
20260503211011 14 300 3.2 16.1 0.00 0.48 0.38 87 1013.7
20260503210507 14 304 3.2 16.1 0.00 0.48 0.38 87 1013.7
20260503210043 14 304 4.8 17.7 0.00 0.48 0.38 87 1013.7
20260503205516 14 305 3.2 17.7 0.00 0.48 0.38 87 1013.7
20260503205010 14 300 4.8 17.7 0.00 0.48 0.38 87 1013.6
20260503204530 14 292 4.8 19.3 0.00 0.48 0.38 87 1013.7
20260503204013 14 304 6.4 19.3 0.00 0.48 0.38 87 1013.6
20260503203507 14 277 3.2 12.9 0.00 0.48 0.38 87 1013.4
20260503203030 14 279 4.8 12.9 0.00 0.48 0.38 87 1013.3
20260503202511 14 288 4.8 12.9 0.00 0.48 0.38 87 1013.3
20260503202011 14 292 4.8 20.9 0.00 0.48 0.38 86 1013.2
20260503201534 14 292 6.4 20.9 0.18 0.48 0.38 87 1013.4
20260503201010 14 306 6.4 19.3 0.18 0.48 0.38 86 1013.2
20260503200510 14 278 4.8 14.5 0.18 0.48 0.38 86 1013.2
20260503200026 14 273 3.2 14.5 0.18 0.48 0.38 86 1013.0
20260503195511 14 285 3.2 12.9 0.18 0.48 0.38 86 1013.1
20260503195011 14 284 3.2 14.5 0.18 0.48 0.38 85 1013.1
20260503194528 14 281 3.2 14.5 0.18 0.48 0.38 85 1013.1
20260503194009 14 294 4.8 12.9 0.18 0.48 0.38 85 1013.2
20260503193509 14 292 4.8 16.1 0.18 0.48 0.38 85 1013.1
20260503193032 14 284 3.2 19.3 0.18 0.48 0.38 84 1013.1
20260503192507 15 311 8.0 19.3 0.18 0.48 0.38 84 1013.0
20260503192011 15 322 8.0 19.3 0.18 0.48 0.38 84 1013.0
20260503191530 15 309 9.7 24.1 0.00 0.28 0.18 83 1012.9
20260503191009 15 257 8.0 24.1 0.00 0.28 0.18 83 1012.9
20260503190512 15 284 8.0 24.1 0.00 0.28 0.18 84 1012.8
20260503190039 15 297 8.0 16.1 0.00 0.28 0.18 84 1012.9
20260503185509 15 302 6.4 24.1 0.00 0.28 0.18 84 1012.8
20260503185011 15 261 6.4 24.1 0.00 0.28 0.18 84 1012.8
20260503184529 15 303 8.0 20.9 0.00 0.28 0.18 84 1012.8
20260503184011 14 296 6.4 16.1 0.00 0.28 0.18 85 1012.8
20260503183511 14 290 4.8 17.7 0.00 0.28 0.18 85 1012.8
20260503183026 14 296 4.8 17.7 0.00 0.28 0.18 85 1012.8
20260503182510 14 286 6.4 16.1 0.00 0.46 0.18 85 1012.8
20260503182011 14 305 4.8 16.1 0.00 0.46 0.18 85 1012.7
20260503181529 14 323 8.0 16.1 0.00 0.46 0.18 85 1012.8
20260503181009 14 301 6.4 19.3 0.00 0.46 0.18 85 1012.7
20260503180510 14 299 8.0 19.3 0.00 0.46 0.18 86 1012.6
20260503180028 13 302 6.4 19.3 0.00 0.46 0.18 86 1012.8
20260503175511 13 318 8.0 19.3 0.00 0.46 0.18 86 1012.8
20260503175013 13 279 8.0 19.3 0.00 0.46 0.18 86 1012.9
20260503174530 13 296 8.0 20.9 0.00 0.46 0.18 86 1012.9
20260503174015 13 289 9.7 20.9 0.00 0.46 0.18 86 1013.0
20260503173507 13 306 8.0 17.7 0.03 0.46 0.18 86 1013.1
20260503173044 13 259 6.4 17.7 0.03 0.46 0.18 86 1013.2
20260503172509 13 311 4.8 17.7 0.03 0.51 0.18 86 1013.1
20260503172013 13 294 3.2 14.5 0.03 0.51 0.18 86 1013.1
20260503171526 13 285 6.4 16.1 0.03 0.51 0.18 86 1013.1
20260503171011 13 313 6.4 19.3 0.05 0.51 0.18 86 1013.2
20260503170513 13 281 4.8 19.3 0.05 0.51 0.18 86 1013.3
20260503151008 13 313 3.2 12.9 0.08 0.41 0.08 84 1013.4
20260503150510 13 309 1.6 12.9 0.08 0.41 0.08 84 1013.3
20260503131010 13 304 1.6 14.5 0.00 0.30 0.30 84 1014.2
20260503130510 13 300 1.6 12.9 0.00 0.30 0.30 84 1014.2
20260503110510 14 284 0.0 11.3 0.05 0.28 0.28 80 1013.9
20260503090510 16 335 6.4 22.5 0.00 0.23 0.23 71 1013.0
20260503081543 16 284 3.2 14.5 0.00 0.23 0.23 71 1012.5
20260503081013 16 294 4.8 14.5 0.00 0.23 0.23 71 1012.5
20260503080511 16 304 3.2 17.7 0.00 0.23 0.23 71 1012.4
20260503072510 16 304 3.2 14.5 0.00 0.28 0.23 70 1012.3
20260503072012 16 307 3.2 14.5 0.00 0.28 0.23 70 1012.4
20260503071536 16 360 1.6 17.7 0.00 0.28 0.23 70 1012.4
20260503071014 16 297 6.4 20.9 0.00 0.28 0.23 69 1012.4
20260503070511 16 287 6.4 20.9 0.00 0.28 0.23 69 1012.4
20260503055011 18 301 9.7 25.7 0.00 0.33 0.23 59 1011.9
20260503054537 18 305 9.7 22.5 0.00 0.33 0.23 59 1011.9
20260503054011 18 308 9.7 30.6 0.00 0.33 0.23 59 1011.9
20260503053511 18 308 9.7 30.6 0.00 0.33 0.23 58 1012.0
20260503053030 18 270 9.7 30.6 0.00 0.33 0.23 58 1011.9
20260503052518 19 325 12.9 30.6 0.00 0.46 0.23 57 1012.0
20260503052010 19 324 9.7 30.6 0.00 0.46 0.23 58 1011.9
20260503051529 19 298 11.3 30.6 0.00 0.46 0.23 57 1011.9
20260503051011 19 296 9.7 30.6 0.00 0.46 0.23 57 1011.9
20260503050512 18 294 11.3 30.6 0.00 0.46 0.23 58 1012.0
20260503050029 18 286 12.9 30.6 0.00 0.46 0.23 58 1012.0
20260503045509 18 304 9.7 27.4 0.00 0.46 0.23 59 1011.9
20260503045015 18 299 11.3 25.7 0.00 0.46 0.23 57 1012.0
20260503044540 18 307 9.7 27.4 0.00 0.46 0.23 57 1012.0
20260503044013 18 314 9.7 32.2 0.00 0.46 0.23 58 1011.8
20260503043512 18 278 12.9 32.2 0.00 0.46 0.23 56 1012.0
20260503043028 19 313 9.7 29.0 0.00 0.46 0.23 57 1012.0
20260503042511 19 309 12.9 29.0 0.00 0.53 0.23 56 1012.0
20260503042011 19 296 12.9 29.0 0.00 0.53 0.23 57 1012.0
20260503041528 19 273 9.7 27.4 0.00 0.53 0.23 57 1012.0
20260503041012 19 320 11.3 27.4 0.00 0.53 0.23 57 1012.1
20260503040510 19 304 12.9 29.0 0.00 0.53 0.23 58 1012.1
20260503040029 18 321 9.7 29.0 0.00 0.53 0.23 60 1012.1
20260503035509 18 296 11.3 29.0 0.00 0.53 0.23 60 1012.3
20260503035014 18 271 11.3 27.4 0.00 0.53 0.23 58 1012.3
20260503034528 18 296 11.3 25.7 0.00 0.53 0.23 58 1012.4
20260503034010 18 303 8.0 25.7 0.00 0.53 0.23 59 1012.3
20260503033517 18 360 11.3 25.7 0.00 0.53 0.23 61 1012.4
20260503033029 18 298 9.7 25.7 0.00 0.53 0.23 62 1012.5
20260503032510 18 310 11.3 27.4 0.00 0.66 0.23 64 1012.5
20260503032010 17 320 14.5 30.6 0.00 0.66 0.23 64 1012.5
20260503031529 17 275 14.5 30.6 0.00 0.66 0.23 66 1012.5
20260503031009 17 300 8.0 27.4 0.00 0.66 0.23 67 1012.5
20260503030515 17 305 9.7 27.4 0.00 0.66 0.23 66 1012.5
20260503030029 17 202 9.7 27.4 0.00 0.66 0.23 65 1012.5
20260503025508 17 289 11.3 27.4 0.00 0.66 0.23 64 1012.6
20260503025009 18 321 6.4 20.9 0.00 0.66 0.23 65 1012.5
20260503024526 18 298 8.0 29.0 0.00 0.66 0.23 64 1012.6
20260503024010 18 277 6.4 29.0 0.00 0.66 0.23 64 1012.7
20260503023510 18 300 6.4 29.0 0.00 0.66 0.23 65 1012.7
20260503023027 18 285 11.3 29.0 0.00 0.66 0.23 64 1012.9
20260503022507 18 105 8.0 27.4 0.00 0.66 0.23 64 1012.8
20260503022015 18 315 8.0 29.0 0.00 0.66 0.23 64 1012.8
20260503021526 18 300 8.0 29.0 0.00 0.66 0.23 65 1012.9
20260503021009 17 303 11.3 24.1 0.00 0.66 0.23 65 1012.8
20260503020512 17 304 4.8 27.4 0.00 0.66 0.23 65 1012.9
20260503020027 17 311 12.9 27.4 0.00 0.66 0.23 64 1013.0
20260503015510 17 319 11.3 27.4 0.00 0.66 0.23 64 1012.9
20260503015008 17 300 11.3 27.4 0.00 0.66 0.23 64 1012.8
20260503014528 17 306 11.3 27.4 0.00 0.66 0.23 63 1012.9
20260503014009 17 307 9.7 25.7 0.00 0.66 0.23 64 1012.9
20260503013513 17 284 8.0 24.1 0.00 0.66 0.23 65 1013.0
20260503013035 17 281 9.7 24.1 0.00 0.66 0.23 66 1013.0
20260503012512 17 300 9.7 25.7 0.00 0.66 0.23 67 1013.1
20260503012014 16 340 9.7 29.0 0.00 0.66 0.23 67 1013.0
20260503011530 16 311 9.7 38.6 0.00 0.66 0.23 67 1013.0
20260503011011 16 298 11.3 38.6 0.00 0.66 0.23 67 1013.2
20260503010510 16 311 12.9 30.6 0.00 0.66 0.23 67 1013.3
20260503010028 16 286 4.8 22.5 0.00 0.66 0.23 68 1013.2
20260503005509 16 318 8.0 29.0 0.00 0.66 0.23 68 1013.1
20260503005008 16 303 9.7 29.0 0.00 0.66 0.23 68 1013.3
20260503004530 17 304 6.4 27.4 0.00 0.66 0.23 69 1013.3
20260503004009 17 291 8.0 27.4 0.00 0.66 0.23 69 1013.2
20260503003507 17 309 4.8 19.3 0.00 0.66 0.23 71 1013.3
20260503003026 16 289 8.0 17.7 0.00 0.66 0.23 71 1013.4
20260503002515 16 82 4.8 17.7 0.00 0.66 0.23 72 1013.3
20260503002012 16 302 4.8 20.9 0.00 0.66 0.23 73 1013.5
20260503001530 16 297 6.4 20.9 0.00 0.66 0.23 74 1013.4
20260503001012 16 308 3.2 12.9 0.00 0.66 0.23 75 1013.4
20260503000508 16 317 3.2 17.7 0.00 0.66 0.23 75 1013.3
20260503000036 15 307 3.2 17.7 0.00 0.66 0.23 76 1013.3
20260502235512 15 300 3.2 16.1 0.00 0.66 0.23 77 1013.3
20260502235011 15 294 3.2 16.1 0.00 0.66 0.23 78 1013.3
20260502234531 15 300 3.2 16.1 0.00 0.66 0.23 79 1013.4
20260502234011 15 309 1.6 12.9 0.00 0.66 0.23 79 1013.3
20260502233512 14 308 3.2 12.9 0.00 0.66 0.23 80 1013.3
20260502233028 14 290 1.6 12.9 0.00 0.66 0.23 81 1013.5
20260502232513 14 325 3.2 12.9 0.00 0.66 0.23 82 1013.4
20260502232010 13 360 1.6 11.3 0.00 0.66 0.23 83 1013.4
20260502231527 13 296 0.0 19.3 0.00 0.66 0.23 83 1013.3
20260502231012 13 360 3.2 19.3 0.00 0.66 0.23 84 1013.4
20260502230511 13 313 1.6 14.5 0.00 0.66 0.23 84 1013.3
20260502230031 13 61 3.2 14.5 0.00 0.66 0.23 85 1013.4
20260502225510 13 360 3.2 14.5 0.00 0.66 0.23 85 1013.3
20260502225013 13 360 1.6 11.3 0.00 0.64 0.20 86 1013.4
20260502224530 12 76 1.6 11.3 0.00 0.64 0.20 86 1013.3
20260502224014 12 78 1.6 8.0 0.00 0.64 0.20 86 1013.3
20260502223515 12 80 1.6 12.9 0.00 0.64 0.20 86 1013.3
20260502223028 12 0 1.6 12.9 0.00 0.64 0.20 86 1013.4
20260502222507 12 46 1.6 9.7 0.00 0.64 0.20 86 1013.3
20260502222008 12 0 1.6 9.7 0.00 0.64 0.20 86 1013.2
20260502221534 12 46 1.6 12.9 0.00 0.64 0.20 86 1013.1
20260502221010 12 0 3.2 12.9 0.00 0.64 0.20 86 1013.1
20260502220509 12 0 1.6 9.7 0.00 0.64 0.20 86 1013.2
20260502220028 12 65 1.6 9.7 0.00 0.64 0.20 86 1013.2
20260502215512 12 67 3.2 9.7 0.00 0.64 0.20 86 1013.0
20260502215011 12 71 3.2 11.3 0.00 0.64 0.20 87 1012.9
20260502214527 12 69 3.2 11.3 0.00 0.64 0.20 87 1012.9
20260502214014 12 56 1.6 9.7 0.00 0.64 0.20 87 1012.8
20260502213508 12 0 1.6 9.7 0.00 0.64 0.20 87 1012.7
20260502213028 12 57 1.6 11.3 0.00 0.64 0.20 87 1012.7